weather.gov     
National Weather Service

Regional Weather Roundup
NWS Homepage
This page is being discontinued on March 12, 2014.
The same data is available at this site. Please update your bookmarks.
Thank you, and we apologize for the inconvenience.
Please send an email to SR-SRH.Webmaster@noaa.gov with any concerns.


Current Version
Previous Version:    01  02  03  04  05  06  07  08  09  10  11  12  13  14  15  16  17  18  19  20  21  22  23  24  25  26  27  28  29  30  
   31  32  33  34  35  36  37  38  39  40  41  42  43  44  45  46  47  48  49  50  51  52  53  54  55  56  57  58  59  60  
[Printable]
665
ASUS43 KLOT 250110
RWRIL

ILLINOIS REGIONAL WEATHER ROUNDUP
NATIONAL WEATHER SERVICE CHICAGO/ROMEOVILLE IL
800 PM CDT THU APR 24 2014

NOTE: "FAIR" INDICATES FEW OR NO CLOUDS BELOW 12,000 FEET WITH NO
SIGNIFICANT WEATHER AND/OR OBSTRUCTIONS TO VISIBILITY.

* THESE STATIONS ARE NOT UNDER NWS QUALITY CONTROL. THEY ALSO MAY NOT
  REPORT WEATHER SUCH AS PRECIPITATION OR FOG.

ILZ001-002-007-009-015-016-024-250200-
NORTHWEST ILLINOIS

CITY           SKY/WX    TMP DP  RH WIND       PRES   REMARKS
MOLINE         CLOUDY    55  52  89 NW7       29.65R FOG
STERLING*      CLOUDY    55  52  88 W3        29.68R
SAVANNA*       RAIN      54  51  91 CALM      29.68R
$$

ILZ003-004-008-010-011-017-018-250200-
NORTH CENTRAL ILLINOIS

CITY           SKY/WX    TMP DP  RH WIND       PRES   REMARKS
ROCKFORD       LGT RAIN  57  42  57 SE12      29.68F
FREEPORT*      RAIN      52  48  86 SW5       29.69R
ROCHELLE*      CLOUDY    56  44  62 SE10      29.66F
DE KALB*       DRIZZLE   55  41  60 SE13      29.67F
PERU*          RAIN      60  51  73 CALM      29.64F
$$

ILZ005-006-012>014-019>023-250200-
NORTHEAST ILLINOIS

CITY           SKY/WX    TMP DP  RH WIND       PRES   REMARKS
CHICAGO-OHARE  LGT RAIN  57  36  45 SE14      29.72R
CHICAGO-MIDWAY CLOUDY    61  29  29 SE12      29.73R
AURORA         LGT RAIN  57  42  57 SE13      29.69F
LANSING*       CLOUDY    60  27  28 SE8       29.73R
JOLIET*        CLOUDY    59  37  44 SE7       29.72S
WAUKEGAN       CLOUDY    46  33  60 SE10      29.73S
DUPAGE AIRPORT LGT RAIN  56  40  55 SE16      29.69F
KANKAKEE*      CLOUDY    61  37  41 E14       29.70S
WHEELING       LGT RAIN  59  32  36 SE17G25   29.74R
MORRIS*        LGT RAIN  59  39  47 SE9       29.69F
ROMEOVILLE*    CLOUDY    59  33  37 SE13      29.72S
NORTHERLY ISL    N/A     52  40  63 S1          N/A
$$

LMZ740>746-250200-
SOUTHERN LAKE MICHIGAN

STATION/POSITION SKY/WX   TEMP    WIND        PRES    VSBY  WAVE
                          AIR SEA DIR/SP/G                  HT/PER
                          (F)     (DEG/KT/KT) (MB)    (MI)  (FT/S)
WAUKEGAN HARBOR            45     120/ 17/ 19 1008.1S
HARRISON CRIB              53     130/ 13/ 16   N/A
BURNHAM HARBOR             52     160/  1/ 11   N/A
CALUMET HARBOR             60     130/  8/ 15 1007.7R
MICHIGAN CITY              59     110/ 17/ 25   N/A
$$

ILZ025>027-034>036-040-047-049-050-058-095>099-250200-
WEST-CENTRAL ILLINOIS

CITY           SKY/WX    TMP DP  RH WIND       PRES   REMARKS
QUINCY         RAIN      57  56  96 NW6       29.60R FOG
GALESBURG*     RAIN      54  54 100 N5        29.59F
MACOMB*        LGT RAIN  54  54 100 NW7       29.60F
JACKSONVILLE*  RAIN      58  55  91 N5        29.63F
PITTSFIELD*    LGT RAIN  58  55  91 E5        29.62S
$$

ILZ028>032-037-038-041>044-048-051>054-059>061-250200-
CENTRAL ILLINOIS

CITY           SKY/WX    TMP DP  RH WIND       PRES   REMARKS
PONTIAC        CLOUDY    66  41  39 SE10      29.66S
BLOOMINGTON    LGT RAIN  65  42  43 SE13      29.64F
DECATUR        CLOUDY    69  43  38 SE17G25   29.62F
PEORIA         RAIN      63  51  65 CALM      29.63R
LACON*         CLOUDY    60  51  73 E7        29.61F
LINCOLN*       LGT RAIN  68  46  46 S12       29.62R
SPRINGFIELD    LGT RAIN  61  55  81 W12G25    29.65R
TAYLORVILLE    RAIN      59  54  82 W20G29    29.67R
$$

ILZ033-039-045-046-055>057-062-063-250200-
EAST-CENTRAL ILLINOIS

CITY           SKY/WX    TMP DP  RH WIND       PRES   REMARKS
CHAMPAIGN      RAIN      63  48  58 SE12      29.66F
RANTOUL*       CLOUDY    67  40  36 SE12G17   29.68S
MATTOON        CLOUDY    68  40  35 SE14      29.65F
PARIS*         CLOUDY    66  42  40 SE9       29.69F
$$

ILZ079-100>102-250200-
SOUTHWEST ILLINOIS

CITY           SKY/WX    TMP DP  RH WIND       PRES   REMARKS
ALTON          CLOUDY    59  59 100 NW9       29.67R
BELLEVILLE     TSTM      58  58 100 NW10G22   29.67R
CAHOKIA*       RAIN      59  57  93 NW6       29.68S FOG
SPARTA*        TSTM      61  57  88 NW17G35   29.69R
$$

ILZ064>066-069>071-074>076-080>082-084>086-088>090-092>094-250200-
SOUTH-CENTRAL ILLINOIS

CITY           SKY/WX    TMP DP  RH WIND       PRES   REMARKS
CARBONDALE     CLOUDY    73  50  44 S15G23    29.64F
CAIRO*         CLOUDY    73  54  51 S8        29.66R
MARION         CLOUDY    75  50  41 S9        29.64F
MT. VERNON     CLOUDY    73  46  38 S10G20    29.65F
CENTRALIA*     CLOUDY    71  48  42 SE9       29.62F
SALEM*         CLOUDY    74  48  39 SE5       29.63F
METROPOLIS*    CLOUDY    74  46  35 S8G18     29.63F
$$

ILZ067-068-072-073-078-083-087-091-250200-
SOUTHEAST ILLINOIS

CITY           SKY/WX    TMP DP  RH WIND       PRES   REMARKS
FLORA*         MOCLDY    70  43  38 SE9       29.66F
FAIRFIELD*     CLOUDY    72  50  46 SE9       29.66F
HARRISBURG*    CLOUDY    72  49  44 SE8       29.66F
ROBINSON*      CLOUDY    71  41  34 SE10      29.71S
CARMI*         CLOUDY    70  51  51 SE9       29.67F
$$

ABBREVIATIONS USED IN REMARKS
   TC - TEMPERATURE IN CELSIUS
  WCI - WIND CHILL INDEX
   HX - HEAT INDEX
  VSB - VISIBILITY
$$





U.S. Dept. of Commerce
NOAA National Weather Service
1325 East West Highway
Silver Spring, MD 20910
E-mail: w-nws.webmaster@noaa.gov
Page last modified: May 16, 2007
NATIONAL WEATHER SERVICE: for Safety, for Work, for Fun - FOR LIFE